KC4KQE Weather Reports


Display with metric or nautical units.
time (UTC)temp
F
wind
direction
speed
MPH
gust
MPH
rain 1hr
in
rain 24hr
in
rain mn
in
humidity
%
barometer
mb
20171019205918 93 222 5.0 9.0 0.00 0.00 0.00 15 1008.6
20171019205418 92 198 1.0 9.0 0.00 0.00 0.00 14 1008.7
20171019204918 92 156 0.0 8.0 0.00 0.00 0.00 15 1008.8
20171019201418 92 229 6.0 9.0 0.00 0.00 0.00 15 1009.3
20171019200918 91 153 2.0 5.0 0.00 0.00 0.00 16 1009.4
20171019194418 90 190 8.0 9.0 0.00 0.00 0.00 16 1009.8
20171019192918 90 193 7.0 9.0 0.00 0.00 0.00 16 1010.0
20171019191418 89 182 1.0 6.0 0.00 0.00 0.00 17 1010.3
20171019183918 86 157 0.0 1.0 0.00 0.00 0.00 19 1010.8
20171019165918 79 148 0.0 0.0 0.00 0.00 0.00 31 1011.4
20171019164918 80 148 0.0 0.0 0.00 0.00 0.00 29 1011.4
20171019161418 80 23 0.0 0.0 0.00 0.00 0.00 25 1011.6
20171019160918 80 23 0.0 0.0 0.00 0.00 0.00 26 1011.5
20171019145918 73 65 0.0 2.0 0.00 0.00 0.00 42 1011.2
20171019143918 71 65 0.0 2.0 0.00 0.00 0.00 39 1011.0
20171019124418 71 65 0.0 2.0 0.00 0.00 0.00 29 1010.5
20171019122918 71 65 1.0 1.0 0.00 0.00 0.00 29 1010.5
20171019120418 70 65 1.0 3.0 0.00 0.00 0.00 28 1010.3
20171019114918 70 126 3.0 3.0 0.00 0.00 0.00 29 1010.2
20171019110918 72 132 1.0 1.0 0.00 0.00 0.00 28 1010.2
20171019085418 72 61 0.0 0.0 0.00 0.00 0.00 27 1010.8
20171019075918 75 61 0.0 1.0 0.00 0.00 0.00 23 1010.6
20171019074918 77 61 0.0 2.0 0.00 0.00 0.00 22 1010.7
20171019070918 78 61 1.0 1.0 0.00 0.00 0.00 21 1010.7
20171019065918 78 61 0.0 3.0 0.00 0.00 0.00 21 1010.8
20171019065418 79 61 1.0 2.0 0.00 0.00 0.00 21 1010.8
20171019064918 80 61 0.0 1.0 0.00 0.00 0.00 19 1010.9
20171019063418 81 61 1.0 4.0 0.00 0.00 0.00 19 1011.0
20171019061418 81 41 0.0 4.0 0.00 0.00 0.00 19 1011.2
20171019055418 81 321 4.0 5.0 0.00 0.00 0.00 19 1011.3
20171019052418 81 342 0.0 4.0 0.00 0.00 0.00 19 1011.2
20171019051418 81 329 3.0 5.0 0.00 0.00 0.00 18 1011.3
20171019035418 81 24 2.0 4.0 0.00 0.00 0.00 19 1011.4
20171019034918 81 25 1.0 3.0 0.00 0.00 0.00 19 1011.3
20171019032918 82 26 3.0 5.0 0.00 0.00 0.00 18 1011.3
20171019024918 83 28 0.0 0.0 0.00 0.00 0.00 18 1011.5
20171019023918 83 28 1.0 2.0 0.00 0.00 0.00 18 1011.5
20171019021918 84 28 1.0 3.0 0.00 0.00 0.00 18 1011.6
20171019012918 87 313 1.0 3.0 0.00 0.00 0.00 16 1011.6
20171019011918 88 302 3.0 6.0 0.00 0.00 0.00 16 1011.6
20171019002918 89 275 3.0 5.0 0.00 0.00 0.00 16 1011.5
20171018234418 92 280 4.0 6.0 0.00 0.00 0.00 16 1011.5
20171018232918 92 288 5.0 9.0 0.00 0.00 0.00 16 1011.6
20171018232418 92 265 4.0 5.0 0.00 0.00 0.00 15 1011.7
20171018230918 91 275 5.0 9.0 0.00 0.00 0.00 15 1011.8
20171018225918 91 273 3.0 8.0 0.00 0.00 0.00 15 1011.8
20171018225418 91 292 3.0 9.0 0.00 0.00 0.00 15 1011.9
20171018221418 94 284 5.0 12.0 0.00 0.00 0.00 13 1012.0
20171018220418 94 312 4.0 8.0 0.00 0.00 0.00 14 1012.0